Weather History for Guymon, OK

Change the Weather History Date:

Wednesday, December 12, 2012

  Actual Average Record
Temperature  
Mean Temperature 39 °F 35 °F  
Max Temperature 60 °F 48 °F 62 °F (2009)
Min Temperature 18 °F 22 °F 4 °F (2000)
Degree Days  
Heating Degree Days 26 30  
Month to date heating degree days 270 339  
Since 1 July heating degree days 1003 1230  
Cooling Degree Days 0 0  
Month to date cooling degree days 0 0  
Year to date cooling degree days 1917 1482  
Moisture  
Dew Point 11 °F    
Average Humidity 39    
Maximum Humidity 62    
Minimum Humidity 16    
Precipitation  
Precipitation 0.00 in 0.01 in 0.05 in (2003)
Month to date precipitation T 0.32  
Year to date precipitation 10.79 18.98  
Snow  
Snow 0.00 in - - ()
Month to date snowfall 0.0  
Since 1 July snowfall 0.0  
Snow Depth 0.00 in    
Sea Level Pressure  
Sea Level Pressure 29.95 in    
Wind  
Wind Speed 9 mph (SSW)    
Max Wind Speed 17 mph    
Max Gust Speed 21 mph    
Visibility 10 miles    
Events      
T = Trace of Precipitation, MM = Missing Value Source: NWS Daily Summary

Daily Weather History Graph

Daily Weather History Graph

Search for Another Location

Airport:

Trip Planner

Search our weather history database for the weather conditions in past years. The results will help you decide how hot, cold, wet, or windy it might be!

Date:

Astronomy

Dec. 12, 2012 Rise Set
Actual Time 7:49 AM CST 5:30 PM CST
Civil Twilight 7:20 AM CST 5:59 PM CST
Nautical Twilight 6:48 AM CST 6:31 PM CST
Astronomical Twilight 6:16 AM CST 7:03 PM CST
Moon 6:56 AM CST (12/12) 5:09 PM CST (12/12)
Length of Visible Light 10h 38m
Length of Day
9h 41m
Waning Crescent, 1% of the Moon is Illuminated
Dec 12
Waning Crescent
Dec 13
New
Dec 19
First Quarter
Dec 28
Full
Jan 4
Last Quarter

Hourly Weather History & Observations

Time (CST) Temp. Windchill Dew Point Humidity Pressure Visibility Wind Dir Wind Speed Gust Speed Precip Events Conditions
12:53 AM 21.9 °F 11.7 °F 6.1 °F 51% 30.03 in 10.0 mi SSW 9.2 mph - N/A   Clear
1:53 AM 21.9 °F 13.4 °F 7.0 °F 53% 30.01 in 10.0 mi SSW 6.9 mph - N/A   Clear
2:53 AM 24.1 °F 16.0 °F 9.0 °F 53% 29.99 in 10.0 mi SSW 6.9 mph - N/A   Clear
3:53 AM 24.1 °F 17.0 °F 9.0 °F 53% 29.99 in 10.0 mi SSW 5.8 mph - N/A   Clear
4:53 AM 21.0 °F 12.4 °F 8.1 °F 57% 29.99 in 10.0 mi SSW 6.9 mph - N/A   Clear
5:53 AM 21.9 °F 13.4 °F 8.1 °F 55% 29.98 in 10.0 mi South 6.9 mph - N/A   Clear
6:53 AM 19.9 °F 12.1 °F 8.1 °F 60% 30.00 in 10.0 mi South 5.8 mph - N/A   Clear
7:53 AM 19.9 °F 12.1 °F 8.1 °F 60% 30.02 in 10.0 mi South 5.8 mph - N/A   Clear
8:53 AM 23.0 °F 14.7 °F 10.0 °F 58% 30.01 in 10.0 mi South 6.9 mph - N/A   Clear
9:53 AM 33.1 °F 23.4 °F 10.9 °F 40% 30.00 in 10.0 mi SSW 13.8 mph - N/A   Clear
10:53 AM 39.9 °F 33.4 °F 12.9 °F 33% 29.97 in 10.0 mi SSW 10.4 mph - N/A   Clear
11:53 AM 45.0 °F 38.5 °F 14.0 °F 29% 29.96 in 10.0 mi South 13.8 mph - N/A   Clear
12:53 PM 51.1 °F - 14.0 °F 23% 29.92 in 10.0 mi SSW 11.5 mph - N/A   Clear
1:53 PM 55.0 °F - 15.1 °F 21% 29.88 in 10.0 mi South 9.2 mph - N/A   Clear
2:53 PM 59.0 °F - 14.0 °F 17% 29.87 in 10.0 mi SSE 9.2 mph - N/A   Clear
3:53 PM 60.1 °F - 14.0 °F 16% 29.87 in 10.0 mi South 12.7 mph - N/A   Clear
4:53 PM 57.9 °F - 14.0 °F 18% 29.88 in 10.0 mi South 8.1 mph - N/A   Clear
5:53 PM 51.1 °F - 14.0 °F 23% 29.89 in 10.0 mi South 9.2 mph - N/A   Clear
6:53 PM 44.1 °F 39.0 °F 12.9 °F 28% 29.92 in 10.0 mi South 9.2 mph - N/A   Clear
7:53 PM 45.0 °F 38.5 °F 14.0 °F 29% 29.93 in 10.0 mi South 13.8 mph - N/A   Clear
8:53 PM 43.0 °F 38.2 °F 12.9 °F 30% 29.94 in 10.0 mi South 8.1 mph - N/A   Clear
9:53 PM 39.0 °F 31.4 °F 12.9 °F 34% 29.94 in 10.0 mi SSW 12.7 mph - N/A   Clear
10:53 PM 37.9 °F 30.0 °F 12.9 °F 36% 29.94 in 10.0 mi SSW 12.7 mph - N/A   Clear
11:53 PM 37.9 °F 30.9 °F 12.9 °F 36% 29.94 in 10.0 mi SSW 10.4 mph - N/A   Clear